Location: Newark
(42.8481°N, 0.4872°E)
Time: 08:40:11
(UTC+00:00)

Vanguard 1 - Pass Details

Date: 30 October 2020
Orbit: 650 x 3833 km, 34.2° (Epoch: 26 November)

Event Time Altitude Azimuth Distance (km) Brightness Sun altitude
Rises 09:55:19 0° 204° (SSW) 6,559 14.8 28.1°
Reaches altitude 10° 09:59:54 10° 195° (SSW) 5,932 14.8 28.5°
Maximum altitude 10:16:42 34° 139° (SE) 5,049 15.6 29.9°
Drops below altitude 10° 10:35:41 10° 85° (E) 6,755 14.6 31.2°
Sets 10:41:17 0° 77° (ENE) 7,545 14.6 31.5°
